This demonstration page uses our WeatherBlox Daily Observations layout. Learn more.

Left ArrowRight Arrow

36.19886, -115.1175

Hourly Observations for February 24, 2021

Temp ( °F °C ) Dew Point ( °F °C ) Humidity (%) Winds ( mph kmh ) Pressure ( in mb ) Visibility ( mi km ) Precip ( " mm )
12:53 am 00:53 Clear 59 15 2 -16.7 10 10 NNW 12 19 30.00 1016 10 16 N/A
1:53 am 01:53 Clear 54 12.2 5 -15 14 14 NW 6 9 30.00 1016 10 16 N/A
2:53 am 02:53 Clear 55 12.8 6 -14.4 14 14 NNW 9 15 29.99 1016 10 16 N/A
3:53 am 03:53 Clear 54 12.2 8 -13.3 16 16 NW 12 19 30.00 1016 10 16 N/A
4:53 am 04:53 Clear 49 9.4 9 -12.8 20 20 NW 7 11 30.01 1016 10 16 N/A
5:53 am 05:53 Clear 51 10.6 10 -12.2 19 19 NW 10 17 30.01 1016 10 16 N/A
6:53 am 06:53 Sunny 52 11.1 12 -11.1 20 20 WNW 6 9 30.04 1017 10 16 N/A
7:53 am 07:53 Sunny 57 13.9 11 -11.7 16 16 NW 13 20 30.05 1018 10 16 N/A
8:53 am 08:53 Sunny 62 16.7 12 -11.1 14 14 NW 9 15 30.05 1018 10 16 N/A
9:53 am 09:53 Sunny 65 18.3 11 -11.7 12 12 NNW 10 17 30.04 1017 10 16 N/A
10:53 am 10:53 Sunny 67 19.4 9 -12.8 10 10 W 5 7 30.01 1016 10 16 N/A
11:53 am 11:53 Sunny 70 21.1 6 -14.4 8 8 VRB 5 7 29.97 1015 10 16 N/A
12:53 pm 12:53 Sunny 72 22.2 N/A 6 6 N N/A 29.93 1013 10 16 N/A
1:53 pm 13:53 Sunny 71 21.7 2 -16.7 6 6 N N/A 29.90 1012 10 16 N/A
2:53 pm 14:53 Sunny 72 22.2 2 -16.7 6 6 VRB 6 9 29.88 1012 10 16 N/A
3:53 pm 15:53 Sunny 73 22.8 -1 -18.3 5 5 VRB 3 6 29.86 1011 10 16 N/A
4:53 pm 16:53 Sunny with Light Rain 70 21.1 -5 -20.6 5 5 NNW 32 52 29.88 1012 10 16 0.00 0.00
5:53 pm 17:53 Clear 66 18.9 -17 -27.2 3 3 NW 24 39 29.95 1014 10 16 0.00 0.00
6:53 pm 18:53 Clear with Light Rain 63 17.2 -3 -19.4 7 7 NW 31 50 29.98 1015 10 16 0.00 0.00
7:53 pm 19:53 Clear with Light Rain 57 13.9 10 -12.2 15 15 NNW 28 44 30.06 1018 10 16 0.00 0.00
8:53 pm 20:53 Clear with Light Rain 53 11.7 7 -13.9 15 15 NNW 29 46 30.15 1021 10 16 0.00 0.00
9:53 pm 21:53 Clear 50 10 2 -16.7 14 14 VRB 7 11 30.23 1024 10 16 0.00 0.00
10:53 pm 22:53 Clear with Light Rain 49 9.4 3 -16.1 15 15 NW 35 56 30.21 1023 10 16 0.00 0.00
11:53 pm 23:53 Clear with Light Rain 47 8.3 7 -13.9 19 19 NNW 23 37 30.26 1025 10 16 0.00 0.00

Powered by AerisWeather